Location: Deer Path Park
(40.5570°N, 74.8450°W)
Time: 10:18:10
(UTC-04:00)

Iridium 49 - Visible Passes

Search period start: 29 May 2015 00:00
Search period end: 08 June 2015 00:00
Orbit: 776 x 779 km, 86.4° (Epoch: 28 May)

Date Brightness Start Highest point End Pass type
(mag) Time Alt. Az. Time Alt. Az. Time Alt. Az.
29 May 8.4 00:01:04 10° WSW 00:04:09 16° WNW 00:07:08 10° NW visible
29 May 6.9 21:46:51 20° SE 21:49:29 32° E 21:54:06 10° NNE visible
29 May 7.7 23:27:17 17° SW 23:30:15 28° WNW 23:34:40 10° NNW visible
30 May 7.6 21:13:03 11° ESE 21:16:10 18° E 21:19:40 10° NE visible
30 May 6.7 22:53:29 23° SSW 22:56:32 51° W 23:01:37 10° N visible
31 May 5.9 22:19:39 23° S 22:22:57 86° E 22:28:12 10° N visible
01 Jun 8.7 00:03:22 10° W 00:04:34 10° WNW 00:05:24 10° WNW visible
01 Jun 6.4 21:45:50 17° SSE 21:49:29 46° E 21:54:29 10° NNE visible
01 Jun 8.2 23:26:42 10° WSW 23:30:33 20° WNW 23:34:15 10° NNW visible
02 Jun 7.2 21:11:59 10° SE 21:16:08 25° E 21:20:24 10° NNE visible
02 Jun 7.4 22:52:24 12° SW 22:56:43 35° W 23:01:29 10° NNW visible
03 Jun 6.3 22:18:31 14° SSW 22:23:03 66° W 22:28:16 10° N visible
04 Jun 6.0 21:44:35 11° S 21:49:32 68° E 21:54:44 10° N visible
04 Jun 8.6 23:28:10 10° WSW 23:30:55 14° WNW 23:33:23 10° NW visible
05 Jun 6.7 21:11:26 10° SSE 21:16:06 36° E 21:20:53 10° NNE visible
05 Jun 8.0 22:52:40 10° SW 22:56:58 25° WNW 23:01:11 10° NNW visible
06 Jun 7.0 22:18:14 10° SSW 22:23:13 45° W 22:28:13 10° N visible
07 Jun 6.1 21:44:24 10° S 21:49:36 84° W 21:54:52 10° N visible
